GFSNGP_sfc_wetblb_336.txt.gz
Wetbulb
41.19 42.52 42.32 41.45 41.11 39.77 38.43 39.77 36.97 39.03 41.24 45.38 46.22 47.81 48.09 48.78 48.63 48.18 49.87 50.67 50.37 50.14 49.61 49.63 49.84 50.65 50.81 51.01 51.47 51.62 50.56 50.40 51.14 52.89 53.06 51.85 50.59 50.35 50.81 50.42 49.40 48.50 47.70 47.17
38.57 41.97 41.68 40.03 41.39 41.14 40.84 40.94 40.45 41.09 40.71 46.05 46.86 45.84 45.28 46.61 48.58 48.13 47.96 50.57 51.06 51.52 51.09 50.10 51.03 51.12 51.45 51.29 51.57 51.94 50.37 50.45 52.09 52.63 51.91 50.60 50.21 50.31 50.40 49.51 48.91 48.35 47.49 47.09
34.32 39.79 39.89 36.56 40.61 41.34 41.38 42.80 41.27 37.60 42.29 45.64 44.83 45.99 45.76 46.04 47.46 48.41 48.70 48.62 50.80 51.66 52.84 52.30 51.31 52.89 51.68 52.32 51.33 50.60 50.46 50.89 51.71 51.41 50.57 50.25 50.30 50.44 49.13 48.43 48.65 48.14 47.90 48.12
34.30 35.98 28.72 39.84 42.70 43.70 43.10 43.66 44.30 44.00 44.28 46.27 46.86 48.49 47.67 48.82 48.29 48.22 49.65 49.38 49.66 51.77 51.82 52.74 51.80 51.51 51.89 51.79 51.34 50.74 50.37 50.62 50.79 50.19 49.59 50.00 49.94 49.23 48.50 48.91 48.88 48.50 48.17 48.20
32.83 33.16 38.39 41.58 42.79 41.42 40.87 41.47 45.74 44.62 45.79 46.73 47.14 45.69 46.71 49.07 49.45 49.01 49.62 50.85 51.63 51.42 52.81 52.05 52.81 51.61 52.51 51.93 51.03 50.46 50.42 50.00 50.01 49.65 49.76 49.74 48.97 48.27 49.16 48.86 48.10 47.80 48.23 47.26
34.11 29.88 28.75 39.24 44.48 46.68 45.54 38.44 46.21 47.15 46.76 46.68 45.41 40.86 45.19 48.27 49.13 49.71 50.79 50.66 51.12 50.61 50.45 51.93 52.56 51.51 50.85 51.39 51.52 51.09 51.15 50.81 50.05 50.58 49.85 49.31 48.51 48.96 49.14 48.43 48.09 48.31 47.56 46.95
35.35 33.92 37.72 44.56 44.16 45.68 36.00 38.97 45.66 47.65 47.30 46.56 44.53 46.73 48.01 49.22 48.23 48.47 49.23 49.74 50.61 51.41 50.53 50.88 51.72 51.01 50.20 50.12 51.04 51.93 50.82 50.73 50.78 50.30 49.52 48.82 48.71 48.68 47.93 47.59 47.41 46.01 46.55 46.27
35.40 32.26 31.01 45.88 43.60 41.33 44.33 45.77 46.56 47.59 47.36 46.75 47.47 48.59 49.21 49.66 48.80 49.06 49.54 50.13 49.59 49.06 49.98 50.57 50.87 51.72 50.24 49.21 50.53 50.52 50.80 51.07 50.01 49.31 49.58 49.69 47.79 47.42 47.52 46.68 45.41 44.84 44.73 44.61
38.36 37.69 45.36 46.15 44.95 46.83 48.08 47.92 46.55 46.52 48.12 48.36 47.87 47.95 49.06 49.29 49.54 49.25 49.27 48.97 49.48 48.48 49.43 49.32 49.76 49.50 48.55 48.75 49.80 50.71 50.42 49.19 49.04 49.49 49.63 48.52 46.84 46.43 46.30 46.12 44.60 44.03 44.05 43.41
39.94 43.86 45.00 45.95 47.55 48.50 48.85 47.73 48.70 48.59 49.92 49.70 48.12 49.10 49.37 49.59 48.95 48.59 48.55 48.19 48.41 48.13 48.38 47.93 48.40 48.97 48.69 49.77 51.04 50.41 48.92 48.67 48.99 48.23 47.87 47.28 47.23 46.71 45.17 44.26 43.58 44.20 43.44 43.02
41.73 44.10 44.51 45.91 46.88 48.10 48.80 48.88 49.10 49.01 49.21 49.90 49.59 49.33 49.33 49.11 48.96 48.71 48.51 48.32 47.93 47.66 48.01 47.85 48.20 48.60 50.50 50.73 50.43 49.09 48.78 48.74 48.22 47.71 46.49 45.52 45.79 45.58 45.50 44.90 44.91 43.05 42.62 42.23
40.91 44.53 45.20 45.48 47.64 48.87 47.85 48.06 48.83 48.51 48.20 49.00 49.55 49.12 49.61 49.24 49.55 48.88 48.24 48.06 47.52 47.99 48.18 48.45 48.85 49.98 49.85 49.96 49.34 48.57 47.88 47.34 46.58 45.63 44.80 44.64 44.17 43.70 47.44 46.97 45.65 45.04 45.21 42.85
45.29 48.27 47.20 46.99 47.44 48.08 47.43 47.86 49.09 48.83 48.80 48.30 49.16 49.15 49.05 48.92 49.72 50.37 49.15 48.55 47.89 48.01 49.17 49.23 49.59 49.23 49.34 49.39 48.99 48.00 46.40 45.77 44.53 44.40 43.70 43.12 43.03 42.56 40.90 43.64 45.65 44.89 45.13 45.32
49.24 48.39 46.27 47.88 46.47 47.70 47.92 48.39 49.08 48.45 48.89 48.95 49.11 49.01 49.34 48.73 49.07 49.24 48.58 49.18 48.65 49.28 50.72 49.92 49.44 48.54 48.76 48.38 47.09 45.72 44.04 45.42 42.94 42.71 42.52 42.48 42.09 41.61 41.20 40.51 40.05 40.54 43.62 43.83
46.82 47.94 47.46 48.63 48.81 48.87 48.99 49.12 47.59 47.49 47.44 47.27 47.60 48.26 48.13 47.86 47.71 48.53 48.98 48.85 49.18 49.65 50.30 49.76 48.69 47.74 47.38 46.16 44.63 43.38 42.79 41.62 41.23 41.64 42.00 42.53 41.67 40.83 40.58 39.99 39.50 39.23 39.59 42.36
46.22 46.75 46.86 46.47 47.07 48.12 48.76 48.26 47.00 47.57 47.96 48.04 48.39 47.48 48.19 47.90 47.73 47.96 48.37 48.30 48.41 49.36 49.41 48.35 47.54 45.49 44.91 43.62 42.73 42.06 42.06 43.60 42.82 41.35 41.49 40.70 40.40 40.02 39.53 39.15 38.68 38.32 38.15 38.20
43.39 43.10 44.89 45.30 46.35 47.03 47.35 48.84 48.91 48.09 47.26 47.63 47.18 47.46 47.80 47.22 47.00 46.83 47.34 47.78 48.49 48.46 48.31 47.73 44.88 43.93 43.73 42.72 42.05 41.60 41.56 40.62 42.39 40.16 40.42 40.54 40.11 39.41 39.12 38.40 38.07 37.89 38.73 40.60
46.79 46.97 47.20 47.07 46.81 47.19 47.90 48.82 49.26 49.63 49.09 49.01 47.17 47.07 46.49 46.16 46.09 46.15 46.45 47.10 46.43 45.22 45.01 43.80 43.01 42.74 42.37 42.53 42.44 42.04 41.33 40.90 39.94 39.57 40.39 39.86 38.66 39.08 38.39 38.19 38.45 38.30 38.12 39.67
45.76 45.65 46.86 47.47 48.01 48.24 48.41 48.58 49.24 49.78 50.22 50.26 49.22 48.39 47.17 46.83 46.22 45.97 46.48 44.64 42.90 41.50 40.58 42.02 42.52 41.85 41.28 42.52 42.62 41.38 40.57 40.22 39.89 39.18 39.52 40.71 38.72 38.04 37.52 38.31 38.11 38.08 37.96 37.57
45.12 46.05 46.79 47.18 48.09 48.24 48.19 49.43 49.73 49.43 49.73 47.61 48.25 47.37 45.44 45.52 45.85 45.86 45.51 42.51 41.86 41.26 41.08 41.06 41.22 41.07 40.43 42.07 42.97 40.74 40.23 39.79 39.22 38.96 39.48 38.84 38.40 37.86 37.91 38.94 38.61 37.73 37.23 37.07
45.25 46.08 46.41 46.95 47.14 48.11 48.50 49.06 48.85 48.53 49.12 49.20 46.27 45.09 45.23 44.79 43.93 42.58 40.52 38.54 38.93 41.05 40.07 41.26 41.02 40.51 39.91 40.13 40.84 40.50 40.48 40.18 39.62 39.13 39.07 37.88 37.70 38.16 38.26 38.07 38.26 37.97 37.46 36.76
41.85 41.97 42.07 42.35 44.73 46.81 48.00 48.08 48.06 47.62 45.95 46.09 45.67 44.76 42.81 40.59 40.63 40.06 40.33 38.91 39.53 41.50 40.82 40.41 40.26 41.14 41.07 42.33 41.32 40.58 40.02 39.79 39.20 38.12 37.73 38.17 37.99 37.90 37.89 37.86 37.52 37.83 37.54 36.33
38.83 40.00 41.45 41.91 42.04 43.72 44.60 44.51 44.30 44.32 43.90 43.70 42.35 41.49 40.49 40.24 39.84 37.84 36.22 39.13 40.35 40.63 39.42 39.40 41.90 42.40 43.03 41.65 41.31 40.61 39.23 39.22 38.70 38.31 38.17 38.34 38.20 37.95 37.66 37.50 37.61 37.83 37.07 36.47
38.60 39.79 41.05 42.28 42.33 40.49 38.22 38.94 39.70 39.29 38.86 39.18 39.20 39.10 38.21 36.57 37.07 38.93 39.68 40.14 39.93 39.26 38.67 39.51 40.57 42.18 41.79 40.26 39.58 39.03 38.62 38.27 37.95 38.11 38.19 39.71 37.61 37.91 38.01 38.23 38.04 38.34 38.31 38.42
37.74 37.92 37.82 38.06 37.62 36.88 36.48 36.09 35.42 34.98 34.69 34.50 35.06 36.69 37.63 37.58 36.69 36.57 37.00 37.17 37.69 36.64 36.65 38.64 38.95 38.71 36.92 36.34 36.12 36.04 36.02 36.06 35.87 35.16 34.87 35.26 35.42 35.64 35.91 35.77 36.42 36.58 36.45 36.49
34.79 34.79 35.36 35.98 36.31 36.55 35.77 34.83 33.11 33.17 32.54 31.53 32.40 33.78 34.60 35.39 35.60 35.08 35.25 35.77 35.45 35.47 34.51 34.64 35.10 35.23 35.17 35.02 35.11 34.86 34.35 34.17 34.14 34.04 34.27 33.92 33.56 33.01 33.34 33.36 33.71 34.57 34.67 34.72
32.71 33.88 32.56 32.32 33.64 34.15 33.79 33.25 32.16 31.71 32.53 31.80 31.19 32.73 33.26 33.62 33.90 33.64 33.91 33.16 33.36 33.50 33.83 34.18 34.32 34.50 34.12 34.25 34.11 33.84 33.61 33.57 34.46 33.13 32.80 33.09 33.21 33.12 33.18 33.28 33.06 33.27 33.76 33.53

GFSNGP_sfc_wetblb_339.txt.gz
Wetbulb
36.83 38.13 38.25 38.39 37.61 36.81 35.68 37.99 33.31 35.78 38.09 42.25 44.94 43.83 46.51 45.11 45.04 45.57 47.37 48.37 48.63 48.80 48.43 48.49 48.35 48.87 49.57 50.01 49.75 49.78 50.05 49.51 49.91 50.09 49.44 49.61 49.89 49.56 48.87 48.68 48.49 47.62 46.81 46.31
36.15 38.77 38.36 37.20 39.19 38.97 38.12 39.05 38.74 39.67 39.33 42.00 43.55 42.21 42.56 42.97 45.77 45.67 45.94 49.49 49.97 49.68 49.34 48.99 49.75 49.84 50.35 50.28 50.35 50.58 50.39 50.25 50.62 49.79 50.40 50.36 49.49 48.49 48.39 48.67 47.81 47.14 46.67 46.24
32.01 35.46 36.21 33.44 38.76 39.82 38.85 40.31 40.31 35.70 41.34 44.25 43.47 43.68 45.66 45.67 44.11 46.79 46.83 46.99 48.78 49.95 50.39 50.72 50.52 50.88 50.39 50.73 51.01 50.63 50.72 50.76 49.93 50.90 51.41 50.13 48.81 48.17 48.23 47.31 46.67 46.87 46.54 46.59
30.04 32.60 26.80 37.78 40.73 41.90 41.12 42.46 42.91 43.34 42.78 43.65 44.03 45.63 46.38 44.64 45.09 45.07 46.34 47.42 47.58 51.10 51.14 51.49 50.75 49.85 51.18 50.11 50.21 50.86 50.57 50.37 50.40 50.93 50.80 48.84 47.84 47.79 47.32 46.70 46.66 47.04 47.15 46.95
30.51 29.29 36.65 39.64 40.84 39.27 38.78 38.69 43.24 42.20 44.28 45.53 46.15 42.02 43.62 45.20 46.68 47.16 47.06 47.56 49.11 49.23 50.99 51.84 50.18 50.90 50.77 49.99 50.62 50.50 50.57 50.38 50.54 50.97 49.93 47.89 47.18 47.17 46.62 46.79 47.10 46.93 47.08 46.45
28.67 27.21 26.45 36.77 41.95 45.97 43.10 36.70 44.09 44.55 44.24 44.53 42.89 38.29 43.62 46.92 47.19 46.87 47.32 47.84 48.14 48.23 47.68 49.52 51.23 51.02 50.02 50.59 50.52 50.01 51.09 50.84 50.97 50.34 49.39 48.26 47.42 46.78 46.95 47.30 47.35 47.24 46.62 45.81
34.14 32.22 33.71 41.14 43.24 42.84 34.65 36.98 43.60 44.17 44.61 43.83 41.66 44.29 46.28 45.33 46.59 47.36 48.26 48.69 47.90 47.11 47.55 49.28 50.80 49.48 50.22 50.71 50.19 51.93 51.81 50.18 48.89 48.89 48.48 48.33 47.06 46.82 47.00 46.72 46.55 45.49 45.56 45.05
33.66 28.77 29.57 43.59 41.91 40.68 41.72 42.49 44.76 44.53 44.95 44.50 44.32 46.12 46.91 47.33 46.76 47.72 47.99 48.12 48.63 47.41 47.05 47.56 48.02 50.16 50.74 49.84 51.92 50.65 48.80 48.89 48.51 47.97 49.02 48.03 46.65 46.47 46.28 45.74 44.61 43.80 43.86 43.57
35.54 37.12 42.97 42.53 41.10 44.32 44.52 44.03 46.23 45.32 45.67 46.38 46.13 45.98 46.74 47.80 47.23 47.70 47.98 47.51 47.40 47.31 47.12 47.20 47.20 48.91 49.64 50.08 48.19 48.29 48.51 48.10 48.01 48.08 47.69 47.44 46.04 45.30 45.10 44.99 44.21 43.63 43.24 42.38
36.87 41.26 41.32 44.40 47.01 47.35 45.47 45.44 47.27 45.55 47.21 47.47 47.56 47.31 47.03 47.61 47.80 47.71 47.32 46.76 46.76 46.61 46.08 46.22 46.95 47.34 47.63 46.91 47.98 48.74 47.74 47.09 47.47 47.54 46.40 45.85 46.05 45.76 44.94 44.18 43.13 43.07 42.45 41.78
41.89 44.20 43.11 43.54 45.00 46.80 47.19 46.58 46.37 46.76 47.53 47.93 47.36 47.62 47.41 46.88 47.18 47.44 47.18 46.66 46.39 46.02 45.57 46.04 46.64 46.55 47.09 47.64 48.39 47.68 47.77 47.62 47.35 47.24 46.63 44.94 44.95 44.92 44.63 44.07 44.14 42.47 41.86 41.73
35.66 43.29 44.40 42.66 45.51 46.23 45.24 45.69 46.65 46.59 46.80 46.10 47.45 47.71 48.01 47.56 47.76 47.06 47.13 46.47 45.99 45.89 45.56 46.20 46.44 46.44 47.96 48.38 48.22 47.87 47.15 47.09 46.73 45.93 44.33 43.76 43.35 43.17 46.87 46.48 46.68 46.09 45.36 42.34
39.20 45.20 46.24 47.28 47.92 47.07 46.03 45.70 46.10 45.85 46.03 46.12 46.62 47.00 47.15 46.73 47.32 48.88 47.40 46.64 46.12 46.41 46.12 46.31 46.23 47.50 47.97 47.81 47.46 47.32 46.87 45.76 45.61 44.76 43.27 42.43 42.16 41.59 40.73 42.82 45.77 45.32 45.70 45.70
42.65 41.63 39.19 41.85 45.13 47.95 46.40 46.89 47.81 46.25 45.77 46.08 46.52 46.52 46.76 46.61 46.58 47.05 47.13 47.77 47.56 46.24 45.91 46.76 46.63 47.52 47.66 47.51 46.80 45.93 45.04 45.93 43.72 42.61 42.36 41.75 41.42 40.84 40.39 39.54 39.13 39.50 43.90 44.08
40.89 42.06 42.08 43.82 45.20 46.85 48.46 47.90 46.75 46.91 47.44 45.52 44.81 45.47 45.73 45.46 45.50 46.44 47.48 47.47 46.58 46.02 46.65 47.47 47.37 47.43 47.50 46.68 45.64 43.96 43.58 42.62 42.18 41.43 41.08 41.49 40.72 40.17 39.69 39.17 38.53 38.32 38.91 42.59
41.69 42.81 43.15 43.93 44.83 45.54 45.75 46.00 45.73 46.29 47.36 47.63 47.58 47.17 44.72 45.83 46.88 46.43 46.61 45.86 45.33 45.80 47.68 48.29 48.19 48.14 46.98 45.46 43.82 42.21 41.83 42.94 42.23 40.76 40.77 40.04 39.47 38.78 38.31 38.05 37.70 37.53 37.12 36.84
41.24 41.15 42.28 42.57 43.78 44.61 45.09 46.30 46.38 46.61 47.28 47.55 47.95 46.61 44.37 44.73 44.25 44.29 44.80 45.31 46.19 46.87 47.40 48.58 48.51 45.81 45.52 44.12 43.03 41.60 41.23 41.68 42.71 39.92 39.78 39.29 38.73 38.22 38.09 37.54 36.83 36.64 37.04 39.18
43.61 43.73 44.24 44.51 43.91 44.07 44.69 45.76 46.73 47.35 47.28 48.24 48.44 48.18 47.02 45.08 45.04 45.07 44.78 44.91 44.25 45.25 46.25 47.12 44.48 43.92 43.00 41.77 41.22 40.56 39.93 39.97 39.21 38.74 39.07 39.00 38.26 38.16 37.54 37.14 36.94 36.84 37.19 38.99
42.94 42.98 43.95 44.51 45.07 45.35 45.63 45.74 46.41 47.40 47.96 48.36 48.11 47.47 48.14 47.28 47.25 47.75 44.06 44.14 44.12 43.89 44.11 41.80 42.69 42.14 40.42 41.65 41.75 40.75 39.99 39.05 38.49 38.64 38.90 40.08 38.46 37.40 36.59 36.98 36.99 36.97 37.23 37.45
42.40 43.45 44.23 44.61 45.59 45.14 44.60 45.77 46.81 47.09 47.79 47.99 47.88 47.39 46.79 47.16 47.13 43.32 43.88 44.42 45.42 44.53 41.07 41.28 40.89 40.55 40.88 42.63 42.48 40.16 39.84 39.39 38.34 37.70 37.97 37.19 37.38 37.83 37.86 38.05 37.79 37.65 37.21 36.77
41.46 42.12 42.47 42.86 43.33 44.54 45.10 45.90 46.17 46.01 47.06 47.36 46.64 46.42 46.48 47.21 42.95 43.23 41.54 40.63 38.40 40.68 40.67 40.79 40.25 39.72 40.42 41.55 40.34 39.21 39.08 38.21 37.64 37.52 38.25 37.48 37.93 37.70 37.24 37.47 37.72 37.78 37.01 36.57
39.48 39.51 40.02 40.19 39.70 41.25 43.49 44.93 46.03 46.16 46.05 45.99 45.61 45.71 43.91 39.92 38.90 37.83 38.74 38.99 38.67 41.55 40.61 39.88 39.42 40.35 41.18 41.81 39.74 39.31 38.70 38.80 38.70 38.66 38.14 37.83 37.45 37.34 37.50 37.65 37.01 37.43 36.81 36.51
37.85 38.83 39.21 39.48 39.33 39.28 40.41 40.15 41.97 43.94 44.21 42.91 42.37 41.29 39.68 39.11 38.80 38.35 35.94 38.10 39.30 39.95 39.09 39.20 41.71 42.71 42.75 40.22 39.88 39.78 39.65 39.29 38.63 38.15 37.85 37.91 37.77 37.52 37.09 36.55 37.18 37.50 36.46 36.46
35.66 36.61 37.28 38.67 38.25 37.65 35.41 34.70 36.02 36.84 37.63 38.28 38.43 38.85 38.44 37.24 37.42 39.32 39.63 39.98 40.26 39.84 39.74 41.11 42.55 42.75 41.49 40.00 39.65 39.31 39.08 38.58 38.11 37.99 38.02 38.67 36.88 36.69 36.53 36.67 35.76 35.66 35.54 35.50
33.44 33.94 35.38 36.28 34.89 33.87 33.38 33.15 33.27 33.36 33.70 34.07 34.59 35.88 37.17 38.17 37.03 37.00 37.78 37.91 38.95 38.53 38.86 40.52 39.98 39.11 37.38 37.11 36.78 36.40 36.11 36.07 35.62 34.94 34.69 34.71 34.38 34.26 34.08 33.64 33.84 34.01 33.91 33.77
31.90 31.97 32.83 33.07 33.53 33.34 32.44 32.57 32.03 32.45 32.33 32.02 32.84 33.89 34.69 35.68 35.96 35.44 35.38 35.28 34.72 35.04 34.26 34.71 34.80 34.87 35.21 35.29 35.04 34.80 34.36 34.28 33.94 34.11 33.68 33.31 32.98 32.36 31.92 31.91 32.14 32.59 32.80 32.69
31.73 32.49 30.80 30.27 31.47 32.20 32.54 32.30 30.83 30.46 31.72 31.39 30.45 31.95 32.38 32.70 33.31 32.82 33.44 32.12 32.23 32.48 32.93 33.48 33.94 34.28 34.16 34.11 33.82 33.63 33.39 33.28 33.92 32.77 32.46 31.84 31.21 30.77 31.04 31.19 31.14 31.24 31.13 31.37

GFSNGP_sfc_wetblb_342.txt.gz
Wetbulb
34.64 36.21 35.69 36.10 36.13 35.95 33.10 36.21 32.68 33.82 36.12 40.07 42.15 43.44 43.31 42.70 43.87 43.28 43.67 45.30 45.99 46.26 46.36 45.88 46.06 47.55 48.63 49.49 49.01 48.80 48.56 48.10 48.76 49.19 48.63 48.00 47.32 47.59 48.12 47.99 47.22 47.07 46.49 45.64
33.47 37.13 36.22 35.65 38.24 37.79 37.18 37.31 37.27 38.05 37.77 43.68 42.29 40.33 40.50 41.00 42.82 42.36 44.21 45.14 47.33 47.61 47.41 46.77 47.70 48.19 48.82 49.36 49.09 48.81 48.84 49.01 49.72 48.24 48.37 48.20 48.09 48.03 47.78 47.19 47.10 46.79 45.90 45.68
28.06 34.20 34.56 31.44 36.87 38.46 38.91 38.70 39.22 34.48 40.46 44.39 42.35 41.42 43.55 44.73 44.96 43.22 43.71 45.36 46.05 48.17 48.57 49.26 49.04 49.55 48.64 49.54 48.82 48.26 49.27 49.59 49.18 48.88 48.65 48.65 49.08 48.07 47.26 46.47 46.39 45.86 45.46 45.40
27.95 30.26 25.12 36.40 38.07 39.24 39.57 41.06 41.56 41.87 43.12 44.29 44.61 45.01 45.81 45.84 43.41 42.92 43.34 44.86 45.60 47.99 49.47 49.66 50.35 48.56 50.29 48.53 48.45 48.77 49.06 49.45 49.37 48.79 49.05 48.99 48.55 48.60 46.25 46.02 45.70 45.22 45.72 46.13
29.26 27.26 35.31 38.20 40.60 37.29 36.67 37.75 41.09 41.28 43.11 44.36 45.35 41.81 42.86 43.46 44.03 45.60 46.40 46.65 46.25 46.55 47.96 50.08 49.22 49.70 49.58 47.15 48.94 48.90 49.24 49.58 49.54 49.32 49.04 48.72 48.56 48.30 45.95 45.46 45.19 45.78 46.53 45.94
27.02 25.25 25.84 34.87 40.57 44.08 41.79 35.04 42.84 42.69 42.49 42.82 40.69 36.78 42.75 45.48 44.37 45.08 46.00 46.08 45.84 46.15 45.89 46.35 47.90 49.23 48.25 48.08 48.64 48.26 49.81 50.40 50.18 49.33 49.49 48.66 49.40 46.99 45.71 45.57 46.10 46.71 46.15 45.53
33.15 31.27 34.47 39.88 42.65 42.18 31.87 35.23 41.44 41.77 42.22 41.65 39.58 41.97 44.43 43.34 44.63 44.61 44.86 45.21 46.95 45.75 45.68 45.97 46.63 47.01 47.44 48.84 48.27 50.09 50.89 49.80 49.37 48.79 49.52 49.53 46.75 45.37 45.88 45.96 46.06 45.20 45.17 44.72
31.89 30.27 28.81 41.68 40.58 39.83 41.59 45.47 42.18 43.01 44.07 43.42 42.95 45.58 45.74 46.48 45.79 45.78 45.80 46.54 46.73 46.16 46.10 46.16 45.51 45.91 47.34 47.51 50.32 49.98 48.49 48.44 48.67 48.54 49.09 47.47 47.59 45.88 45.84 45.50 44.54 43.81 43.57 43.28
35.45 36.56 42.08 41.75 41.52 42.95 43.32 42.74 43.23 41.34 43.17 44.08 44.27 45.54 46.77 46.41 45.74 46.39 46.43 46.46 45.97 45.51 45.73 46.00 45.80 45.47 45.61 48.41 47.75 47.35 46.58 46.92 46.65 46.67 47.62 47.31 47.00 46.03 45.12 44.57 43.91 43.06 42.89 42.14
34.58 41.05 37.82 38.30 45.21 44.34 45.13 45.48 46.94 47.37 46.00 43.58 44.89 45.29 45.85 46.39 46.77 46.49 46.38 45.99 45.93 45.55 45.29 45.01 45.47 45.80 45.71 46.46 46.62 46.68 46.21 45.72 45.43 46.15 45.42 45.90 46.96 47.04 46.13 44.74 43.42 43.15 42.35 41.49
33.36 35.52 39.77 42.17 41.25 41.55 43.34 46.67 46.42 46.14 44.56 45.06 44.93 45.71 46.03 45.96 46.07 46.46 46.40 46.51 45.12 44.78 44.77 45.49 45.12 45.70 45.86 45.87 45.94 45.60 45.43 45.09 45.25 45.99 46.50 45.29 45.86 45.91 45.91 45.12 45.94 43.59 42.35 41.73
30.38 37.09 38.72 39.14 41.39 42.82 43.12 44.55 46.09 46.94 43.96 45.20 44.22 44.96 45.51 45.51 46.23 45.90 45.96 45.30 45.42 45.59 44.80 45.34 44.87 45.48 45.72 46.19 46.01 45.35 44.85 44.92 45.41 45.79 44.74 45.27 44.65 42.86 46.45 46.26 46.86 46.41 46.07 43.37
37.76 41.25 41.13 41.27 42.61 44.47 42.87 42.56 45.25 45.79 46.64 44.62 45.86 43.96 44.60 44.50 45.60 47.40 46.52 45.64 45.56 46.01 45.69 45.01 45.11 45.37 45.78 46.68 46.06 45.47 45.10 44.89 45.54 45.57 45.04 43.88 43.37 43.25 41.37 43.14 46.20 46.30 46.65 45.98
41.09 40.43 38.41 40.57 40.83 44.48 44.11 43.50 44.14 44.36 46.36 47.25 45.62 45.43 44.08 44.13 44.97 44.78 45.16 46.36 46.25 45.82 45.41 44.51 44.78 45.26 46.16 46.71 45.74 45.12 44.62 46.52 45.62 44.99 44.70 43.16 42.59 41.44 41.57 41.07 39.61 39.15 44.45 44.35
39.72 40.62 40.26 41.52 42.39 42.22 42.92 42.90 42.23 43.55 45.78 46.13 46.32 44.25 44.22 42.97 43.55 44.90 45.56 45.67 45.59 45.07 45.17 45.04 44.81 45.89 46.19 46.24 45.32 44.33 44.09 43.61 43.01 42.21 41.54 42.05 40.63 39.87 39.40 38.98 38.46 37.95 38.25 43.09
39.76 40.41 40.69 40.01 40.10 41.06 41.49 41.57 41.86 44.50 45.52 45.72 45.87 45.95 45.68 44.48 44.40 43.74 44.16 44.02 43.61 45.53 45.90 45.06 45.26 47.59 46.00 45.53 44.51 43.25 43.01 43.75 42.58 40.93 40.73 39.69 39.38 39.01 38.13 37.79 37.40 37.05 36.89 37.16
37.41 37.08 38.71 38.99 39.70 40.26 40.79 42.99 44.15 44.45 45.16 45.58 46.25 46.75 45.93 45.55 43.15 42.08 44.33 42.74 43.76 45.18 45.85 44.84 46.28 45.75 45.76 45.20 43.88 41.60 40.73 41.38 42.83 40.23 40.08 39.73 39.26 38.70 38.08 37.23 36.41 36.12 36.43 38.26
39.40 39.68 40.14 40.55 40.34 40.79 42.22 43.84 44.17 44.59 44.63 45.58 46.20 46.33 45.69 45.39 45.34 45.93 45.57 42.98 42.33 42.37 43.20 44.72 45.60 44.83 44.45 43.08 42.41 41.12 41.00 40.54 39.82 39.77 39.00 38.59 37.77 37.49 36.89 36.50 36.28 36.44 36.58 38.47
40.27 39.78 40.24 40.49 41.21 41.64 42.22 42.80 43.44 44.27 44.70 45.12 45.07 44.96 46.00 46.48 46.56 46.28 44.97 42.23 41.43 42.26 45.74 44.25 44.58 43.89 42.24 41.91 42.22 40.86 40.13 39.17 38.32 38.05 38.40 39.95 37.84 36.66 36.50 36.40 36.51 37.05 37.48 37.27
40.38 41.20 41.46 41.21 41.78 41.67 41.49 42.72 43.42 43.65 44.99 45.39 45.46 44.76 44.41 45.58 46.45 45.07 41.60 41.90 44.67 45.08 44.37 42.51 42.54 41.38 40.51 42.22 42.79 40.14 39.48 38.81 38.03 37.64 37.91 36.70 36.57 36.36 36.55 37.70 37.48 37.41 37.67 37.63
39.09 38.95 38.60 38.97 40.17 41.89 42.55 43.25 43.25 43.16 44.53 44.85 43.94 43.35 43.79 45.12 45.75 45.31 40.93 41.72 43.95 41.59 41.14 41.57 41.17 39.99 41.07 41.63 40.49 39.38 38.80 37.99 37.64 37.67 38.13 36.60 37.51 37.51 37.44 37.99 37.68 37.99 38.04 37.53
36.93 38.03 38.86 39.82 39.40 39.41 40.46 40.68 42.14 42.79 43.38 43.64 44.09 44.18 43.92 43.95 43.63 39.89 39.87 42.17 39.18 41.31 39.76 38.51 38.75 41.00 41.11 41.36 39.74 39.06 38.77 38.45 37.98 38.41 38.19 37.98 37.91 37.68 37.67 37.77 37.58 37.75 37.28 36.85
33.95 35.38 36.53 36.89 37.57 38.35 39.75 38.99 38.11 39.49 39.95 40.80 42.17 43.21 43.38 44.30 39.84 37.44 36.89 36.91 38.26 39.47 37.94 38.11 42.19 42.78 41.86 39.93 39.68 39.18 38.71 38.35 38.48 38.46 38.23 38.36 38.21 37.85 37.72 37.17 37.42 37.47 36.59 36.24
32.27 33.22 33.42 35.63 34.36 33.09 31.51 32.15 33.08 34.09 34.95 35.54 36.15 37.56 36.43 36.01 37.02 38.16 39.04 39.98 40.42 39.97 40.03 41.46 41.72 41.63 40.74 39.24 38.96 38.63 38.21 37.76 38.07 38.15 38.44 38.38 37.46 37.52 37.35 37.00 36.00 35.31 34.87 34.27
32.06 32.64 32.79 33.16 32.45 32.32 32.72 33.08 33.37 33.65 33.96 34.56 35.46 36.26 37.08 38.37 37.78 38.47 39.70 39.96 40.54 40.07 39.48 40.60 40.10 39.24 37.26 36.89 36.77 36.55 36.33 36.18 35.88 35.60 35.32 34.99 34.80 34.73 34.36 33.78 33.42 33.12 32.55 32.76
31.12 30.53 30.89 31.09 31.51 32.16 31.82 31.92 31.20 32.25 32.36 31.30 32.30 33.57 34.50 35.49 35.69 35.16 35.14 35.13 34.56 35.28 34.55 34.94 35.04 34.95 34.93 34.89 34.80 34.62 34.41 34.14 33.58 33.34 33.36 33.23 32.86 32.19 31.85 31.81 31.49 31.37 31.60 31.34
29.78 31.50 29.20 29.19 30.65 31.32 31.60 31.37 29.89 29.44 30.56 30.34 29.55 31.28 31.80 32.15 32.89 32.62 33.29 31.93 31.97 31.99 32.04 32.26 32.53 33.38 32.46 32.31 32.16 32.27 32.81 33.18 33.12 32.22 31.79 31.36 31.18 31.11 30.97 30.41 30.02 29.76 29.64 29.64

GFSNGP_sfc_wetblb_345.txt.gz
Wetbulb
33.32 34.64 34.90 34.96 34.73 33.48 31.08 35.10 30.44 32.65 35.08 38.19 39.81 40.24 42.31 40.30 40.77 41.65 42.98 43.18 43.36 43.94 43.53 43.59 44.13 45.15 46.01 47.48 47.41 47.56 47.61 47.22 48.04 48.30 47.47 46.77 46.32 46.50 46.87 46.41 46.65 46.78 46.04 45.20
31.60 35.89 34.60 33.46 36.07 35.87 35.19 35.93 35.13 35.69 35.63 42.58 44.10 44.42 41.10 42.90 43.48 43.28 41.88 43.79 44.10 44.82 45.38 44.84 45.25 46.17 47.67 47.99 47.70 47.64 47.96 48.05 48.73 46.79 46.99 47.00 47.12 46.17 46.00 46.24 46.26 45.90 45.33 45.51
26.62 32.86 33.51 31.77 36.28 36.97 38.30 38.56 37.01 33.96 39.59 43.40 42.08 42.31 43.49 44.26 44.35 43.02 44.14 43.32 43.81 44.46 46.15 47.66 47.52 47.83 47.41 48.56 48.19 47.54 48.11 48.76 48.31 47.71 47.40 47.22 47.39 46.26 46.57 46.29 45.46 45.44 45.35 44.86
27.11 30.18 24.93 33.91 37.38 37.84 37.92 39.58 40.22 40.68 41.60 42.90 43.30 44.36 42.73 42.50 42.99 44.57 43.96 44.11 44.37 44.79 44.96 46.70 48.08 46.94 48.48 46.92 46.76 47.75 48.00 48.68 48.70 48.00 48.04 47.40 46.64 47.18 47.03 46.58 46.36 45.44 45.03 44.58
28.33 26.42 34.81 37.59 40.22 37.44 35.04 35.86 38.77 38.57 41.11 42.89 43.34 38.77 41.63 43.84 44.30 44.55 46.06 46.34 45.99 45.38 45.09 45.80 46.42 47.44 47.11 45.45 46.78 47.05 47.61 48.19 48.58 48.41 48.09 46.94 46.93 47.50 47.47 46.18 45.10 45.07 44.87 44.67
31.68 24.92 26.61 33.48 38.98 43.40 40.35 32.32 41.80 41.64 42.33 39.99 38.46 34.73 39.25 44.38 43.39 43.59 44.21 45.02 44.14 43.86 44.10 43.95 45.38 46.09 45.51 45.92 46.01 46.34 48.07 48.72 49.42 48.44 48.38 47.35 48.22 47.74 46.81 47.90 47.59 46.35 45.42 45.35
33.49 32.28 34.80 38.55 41.34 41.03 31.04 34.75 39.92 41.79 41.14 39.09 38.90 41.32 43.82 44.14 44.83 43.02 43.21 43.98 44.43 43.50 44.08 44.70 44.60 44.14 44.42 45.07 44.90 48.21 49.20 49.11 47.40 47.37 48.19 48.65 48.19 47.07 46.95 47.10 46.05 45.46 45.27 44.62
31.71 31.49 29.83 37.94 39.07 36.79 37.32 42.03 41.97 41.70 42.23 41.92 42.83 42.91 43.16 44.47 45.38 45.78 45.37 45.68 46.18 45.22 45.22 45.40 44.75 43.72 44.14 44.08 47.53 46.73 46.57 46.22 46.46 47.21 47.99 47.35 46.62 46.26 46.14 46.82 46.11 44.66 44.14 43.19
32.35 33.41 37.70 38.01 36.12 40.20 40.57 38.85 39.76 40.77 43.46 44.27 43.17 42.30 44.01 44.99 44.62 45.90 46.00 45.57 45.46 44.72 44.63 44.88 44.68 44.06 44.27 45.35 45.80 45.69 44.99 44.89 45.26 45.51 45.98 45.59 45.71 44.68 44.49 45.98 46.26 44.79 44.42 43.60
31.53 34.29 35.49 37.17 39.37 40.68 42.43 40.46 41.02 41.30 43.59 44.42 43.88 43.40 42.58 43.72 45.57 45.04 45.49 45.67 44.99 44.46 44.22 44.12 44.65 44.39 44.26 44.78 45.33 45.11 44.38 44.05 43.80 43.94 43.88 44.18 46.19 46.10 46.07 45.53 45.53 44.69 43.90 42.98
32.82 34.57 35.86 37.53 39.06 39.82 40.49 41.86 41.22 41.64 43.22 43.09 43.75 43.45 43.23 44.66 44.48 45.68 46.00 45.59 43.82 44.08 44.20 44.60 44.22 44.37 44.73 44.93 44.70 44.14 43.98 43.75 43.30 43.42 44.49 43.36 44.76 45.56 46.57 47.12 47.71 45.84 45.43 44.04
29.23 35.47 35.57 36.13 39.42 41.37 40.80 40.88 41.60 40.89 41.69 43.86 44.12 43.31 43.76 44.48 46.20 45.43 45.13 45.75 44.97 44.15 43.59 44.28 44.13 44.44 44.66 44.71 44.40 44.07 43.67 43.30 43.20 43.09 42.94 43.30 43.23 42.00 46.47 46.40 47.32 46.56 46.29 43.92
34.38 38.24 38.62 39.62 40.78 41.93 41.37 41.97 42.48 42.00 42.36 42.78 43.74 42.58 43.17 44.68 46.02 46.83 45.64 43.95 43.93 44.52 45.01 44.51 43.92 44.13 44.70 44.98 45.03 44.29 43.62 43.45 43.33 43.86 42.81 42.33 42.97 43.27 41.36 42.83 46.43 46.80 47.05 46.90
38.87 38.74 36.45 38.53 37.65 41.27 41.76 42.04 43.37 43.17 44.16 43.02 42.34 42.94 43.29 44.86 44.90 44.49 44.56 46.15 45.17 44.66 44.59 44.46 44.27 44.76 46.10 44.78 44.92 44.33 43.46 45.36 43.36 43.33 42.85 42.27 42.96 42.68 42.87 41.64 40.41 39.62 45.55 44.77
37.32 38.92 38.64 39.66 39.91 40.00 41.25 41.51 40.43 40.35 41.70 41.86 42.87 42.19 43.57 44.66 45.15 45.11 45.77 44.47 43.87 43.36 43.52 43.80 43.66 44.94 46.41 44.81 44.74 44.09 43.17 42.76 42.78 42.09 41.70 42.17 40.95 40.83 41.05 39.87 39.59 38.33 38.54 42.56
37.10 37.56 38.01 37.55 37.86 38.85 39.49 39.83 39.45 39.65 40.69 41.51 42.00 42.62 44.90 45.65 45.89 45.68 45.27 42.54 41.05 43.20 43.75 43.06 43.25 45.42 44.62 44.35 44.33 43.44 42.83 44.05 43.30 41.36 40.97 40.39 40.33 40.29 38.76 38.62 38.14 38.14 38.12 38.41
34.50 33.80 35.29 35.64 37.10 37.90 38.47 40.01 40.67 41.02 41.42 41.27 41.81 43.56 45.13 45.33 44.58 43.84 44.50 43.67 41.84 43.31 44.11 42.90 43.91 43.77 44.36 44.43 43.91 43.26 41.80 41.84 43.49 40.33 40.61 40.57 39.86 39.42 38.55 37.99 37.24 36.66 36.63 37.68
38.30 38.26 38.41 38.07 37.53 37.68 38.26 39.24 40.24 40.81 40.95 42.28 43.18 44.29 44.36 44.03 43.71 44.50 44.95 43.11 41.83 41.41 41.59 42.86 42.92 43.43 43.73 43.96 43.39 41.82 41.24 40.83 40.55 40.28 38.98 38.79 38.19 38.06 37.57 36.80 36.32 35.94 35.21 37.95
38.52 38.14 38.73 39.57 40.05 40.10 40.26 39.67 40.01 40.92 41.56 42.33 42.97 42.53 43.13 43.35 44.25 44.71 45.36 41.41 41.13 41.67 44.89 43.10 43.27 43.10 43.09 43.73 43.52 41.03 40.69 39.96 38.89 38.43 38.95 40.18 37.72 36.49 36.32 36.12 35.76 35.77 36.29 37.35
37.88 38.96 39.40 39.57 40.93 41.05 40.16 41.06 41.69 41.17 41.69 42.21 42.94 42.63 42.21 42.89 43.68 43.85 44.30 42.31 43.97 45.17 45.89 42.68 42.55 42.29 42.46 42.10 44.21 40.91 40.31 39.95 39.09 38.07 38.30 37.29 36.89 36.19 36.08 36.87 36.08 36.32 36.78 36.98
34.86 35.61 35.87 35.85 36.33 38.24 39.75 41.12 40.44 39.91 41.10 41.64 40.96 41.07 41.65 42.73 43.65 43.82 41.31 40.83 44.12 42.93 42.64 41.98 41.46 41.21 40.19 41.01 41.93 38.96 38.62 37.90 37.98 37.98 38.20 36.58 36.86 36.21 36.26 36.90 37.05 37.71 37.60 37.88
32.55 32.63 32.48 33.47 34.15 35.16 37.42 37.72 38.39 39.07 39.26 39.83 40.64 41.20 41.23 41.23 41.99 42.03 42.52 41.87 44.16 42.48 40.08 39.09 38.59 40.02 39.51 42.11 38.17 37.72 37.54 37.48 37.22 37.29 36.74 37.08 36.87 36.83 37.19 38.04 37.75 38.03 37.78 37.23
31.82 31.70 33.46 33.81 33.67 34.87 34.27 33.35 33.36 34.20 34.21 35.34 36.43 38.35 39.48 40.75 38.96 39.21 39.11 38.03 37.38 39.00 36.06 36.41 40.19 42.53 42.58 37.91 37.93 37.68 37.67 37.83 37.43 37.17 37.74 38.45 38.37 38.28 38.00 37.60 37.66 37.28 37.28 36.76
31.46 31.20 31.14 32.33 34.38 33.37 31.65 33.19 34.02 34.47 34.64 35.37 35.68 36.85 37.38 37.14 38.44 39.59 38.46 39.45 39.93 39.43 40.18 41.52 41.72 41.25 39.90 37.74 37.60 37.42 37.58 37.71 37.49 37.62 38.22 38.73 37.87 37.94 37.82 37.32 36.54 36.25 35.90 35.08
30.22 29.69 30.15 29.83 30.14 30.45 30.98 31.65 32.50 32.47 32.18 32.10 32.64 33.86 34.94 36.62 36.53 37.03 38.45 38.60 39.28 38.93 38.70 40.05 39.47 39.33 37.66 37.39 37.04 36.85 36.55 36.33 36.18 36.14 35.98 35.74 35.46 35.23 34.88 34.66 34.29 33.76 33.32 33.20
29.01 27.80 28.30 28.64 29.08 30.18 30.08 30.11 28.60 29.67 29.60 28.60 29.41 31.02 32.02 32.73 33.06 32.93 33.33 33.80 33.39 34.33 34.00 34.54 34.65 34.50 34.56 34.51 34.54 33.95 33.50 33.38 33.02 32.86 32.54 32.07 32.01 32.04 32.07 31.97 31.96 31.89 31.73 31.55
26.85 29.97 26.73 26.60 27.89 28.74 29.60 28.48 27.03 27.17 27.72 27.42 26.54 28.30 28.85 28.97 29.70 29.90 30.88 29.97 30.09 30.02 30.41 31.30 31.70 32.52 31.85 31.90 31.72 31.67 31.84 32.00 32.65 31.75 31.71 31.51 31.20 30.74 30.27 29.90 29.52 29.24 29.56 29.67